sat.trackr.live / text

‹ back to catalog

STARLINK-3283

NORAD 50179 · 2021-125Z

PAYLOAD ACTIVE UNKNOWN

§ Identity

Operator
Country
US
Launch date
2021-12-18
Launch site
AFWTR
Launch vehicle
Mass (kg)
RCS (m²)

Purposes: comms

External: N2YO · Heavens-Above · Gunter

§ Orbital elements

Epoch: 2026-05-24T17:38:48.734592Z

Period
95.44 min
Inclination
53.2146°
Eccentricity
0.0001086
Mean motion
15.08839772 rev/d
Perigee alt
539.0 km
Apogee alt
540.5 km
Semi-major
6,917.9 km
B*
1.7581e-5
RAAN
267.7377°
Arg perigee
92.5372°
Mean anomaly
267.5745°
Rev number
24,808

§ Raw data

STARLINK-32831 50179U 21125Z   26144.73528628 -.00000008  00000+0  17581-4 0  99952 50179  53.2146 267.7377 0001086  92.5372 267.5745 15.08839772248085

JSON: /api/v1/satellites/50179 · /tle

For live sub-satellite position, see the globe view (requires WebGL).

§ Visibility from observer

Set your observer location to see the next 7 days of passes ≥ 10°. The values pass through the URL so the page stays shareable.

No JS? Fill the form by hand. The geolocation button needs JavaScript.